Terminal Aerodrome Forecast
Issued by NWS

Home | Current Version | Previous Version | Text Only | Print | Product List | Glossary On
Versions: 1 2 3 4 5 6 7 8 9 10 11 12 13 14 15 16 17 18 19 20 21 22 23 24 25 26 27 28 29 30 31 32 33 34 35 36
000
FTPA31 PHFO 221700
TAFPPG
TAF
NSTU 221736Z 2218/2318 12015KT 6SM -SHRA FEW010 BKN015 OVC040
     FM221900 12013KT P6SM VCSH SCT015 BKN040 OVC080=

USA.gov is the U.S. government's official web portal to all federal, state and local government web resources and services.